User: anonymous   Login
Location: Radomski Observatory
(40.2854°N, 79.5145°W)
Time: 00:51:31
(UTC-04:00)
Language:

Cosmos 1072 Rocket - Orbit

View from above orbital plane
View from above orbital plane
View from above satellite
View from above satellite

Ground track
Ground track

The orbit data is extracted from the following two-line orbital elements,

1 11239U 79003B   17204.59294802 +.00000001 +00000-0 -14440-4 0  9997
2 11239 082.9363 061.5505 0039521 292.0706 096.5356 13.75805898932605
Epoch (UTC): 23 July 2017 14:13:50
Eccentricity: 0.0039521
inclination: 82.9363°
perigee height: 950 km
apogee height: 1008 km
right ascension of ascending node: 61.5505°
argument of perigee: 292.0706°
revolutions per day: 13.75805898
mean anomaly at epoch: 96.5356°
orbit number at epoch: 93260

The dashed part of the orbit path shows where the satellite is in the earth's shadow,  

DLR